| time (UTC) | temp C | wind direction | speed KPH | gust KPH | rain 1hr cm | rain 24hr cm | rain mn cm | humidity % | barometer mb |
| 20260504050535 | 12 | 229 | 6.4 | 14.5 | 0.00 | 0.00 | 0.00 | 54 | 1009.0 |
| 20260504045534 | 12 | 221 | 4.8 | 12.9 | 0.00 | 0.00 | 0.00 | 55 | 1009.0 |
| 20260504045034 | 12 | 245 | 4.8 | 11.3 | 0.00 | 0.00 | 0.00 | 55 | 1009.0 |
| 20260504044544 | 12 | 209 | 3.2 | 9.7 | 0.00 | 0.00 | 0.00 | 56 | 1009.1 |
| 20260504044034 | 12 | 209 | 3.2 | 9.7 | 0.00 | 0.00 | 0.00 | 57 | 1009.1 |
| 20260504043534 | 12 | 217 | 3.2 | 9.7 | 0.00 | 0.00 | 0.00 | 58 | 1009.0 |
| 20260504043105 | 12 | 238 | 3.2 | 6.4 | 0.00 | 0.00 | 0.00 | 58 | 1009.1 |
| 20260504042534 | 12 | 221 | 0.0 | 4.8 | 0.00 | 0.00 | 0.00 | 60 | 1009.1 |
| 20260504042034 | 11 | 221 | 0.0 | 8.0 | 0.00 | 0.00 | 0.00 | 60 | 1009.2 |
| 20260504041545 | 11 | 0 | 1.6 | 8.0 | 0.00 | 0.00 | 0.00 | 61 | 1009.1 |
| 20260504041034 | 11 | 205 | 3.2 | 6.4 | 0.00 | 0.00 | 0.00 | 62 | 1009.1 |
| 20260504040539 | 11 | 236 | 1.6 | 12.9 | 0.00 | 0.00 | 0.00 | 63 | 1009.1 |
| 20260504040048 | 10 | 248 | 1.6 | 12.9 | 0.00 | 0.00 | 0.00 | 67 | 1009.1 |
| 20260504035535 | 10 | 216 | 1.6 | 12.9 | 0.00 | 0.00 | 0.00 | 72 | 1009.1 |
| 20260504035035 | 9 | 0 | 0.0 | 0.0 | 0.00 | 0.00 | 0.00 | 78 | 1009.0 |
| 20260504034546 | 9 | 0 | 0.0 | 0.0 | 0.00 | 0.00 | 0.00 | 81 | 1009.1 |
| 20260504034034 | 9 | 0 | 0.0 | 0.0 | 0.00 | 0.00 | 0.00 | 84 | 1009.0 |
| 20260504033534 | 9 | 0 | 0.0 | 0.0 | 0.00 | 0.00 | 0.00 | 86 | 1009.0 |
| 20260504033045 | 9 | 0 | 0.0 | 0.0 | 0.00 | 0.00 | 0.00 | 86 | 1009.1 |
| 20260504032534 | 9 | 0 | 0.0 | 0.0 | 0.00 | 0.00 | 0.00 | 86 | 1009.1 |
| 20260504032034 | 9 | 0 | 0.0 | 0.0 | 0.00 | 0.00 | 0.00 | 85 | 1009.2 |
| 20260504031551 | 9 | 0 | 0.0 | 0.0 | 0.00 | 0.00 | 0.00 | 84 | 1009.3 |
| 20260504031034 | 9 | 0 | 0.0 | 0.0 | 0.00 | 0.00 | 0.00 | 83 | 1009.2 |
| 20260504030534 | 9 | 0 | 0.0 | 0.0 | 0.00 | 0.00 | 0.00 | 83 | 1009.3 |
| 20260504030100 | 9 | 0 | 0.0 | 0.0 | 0.00 | 0.00 | 0.00 | 83 | 1009.3 |
| 20260504025534 | 9 | 0 | 0.0 | 1.6 | 0.00 | 0.00 | 0.00 | 84 | 1009.4 |
| 20260504025034 | 9 | 0 | 0.0 | 1.6 | 0.00 | 0.00 | 0.00 | 84 | 1009.5 |
| 20260504024545 | 9 | 0 | 0.0 | 1.6 | 0.00 | 0.00 | 0.00 | 83 | 1009.6 |
| 20260504024034 | 9 | 0 | 0.0 | 1.6 | 0.00 | 0.00 | 0.00 | 82 | 1009.6 |
| 20260504023534 | 9 | 0 | 0.0 | 1.6 | 0.00 | 0.00 | 0.00 | 81 | 1009.6 |
| 20260504023049 | 10 | 0 | 0.0 | 0.0 | 0.00 | 0.00 | 0.00 | 82 | 1009.9 |
| 20260504022538 | 10 | 0 | 0.0 | 1.6 | 0.00 | 0.00 | 0.00 | 82 | 1009.7 |
| 20260504022035 | 10 | 0 | 0.0 | 1.6 | 0.00 | 0.00 | 0.00 | 81 | 1009.6 |
| 20260504021548 | 10 | 0 | 0.0 | 1.6 | 0.00 | 0.00 | 0.00 | 80 | 1009.7 |
| 20260504021036 | 10 | 0 | 0.0 | 1.6 | 0.00 | 0.00 | 0.00 | 81 | 1009.6 |
| 20260504020538 | 10 | 0 | 0.0 | 1.6 | 0.00 | 0.00 | 0.00 | 79 | 1009.7 |
| 20260504020053 | 10 | 0 | 0.0 | 1.6 | 0.00 | 0.00 | 0.00 | 78 | 1009.7 |
| 20260504015534 | 10 | 0 | 0.0 | 1.6 | 0.00 | 0.00 | 0.00 | 78 | 1009.8 |
| 20260504015034 | 10 | 0 | 0.0 | 3.2 | 0.00 | 0.00 | 0.00 | 78 | 1010.0 |
| 20260504014549 | 10 | 0 | 0.0 | 3.2 | 0.00 | 0.00 | 0.00 | 78 | 1010.0 |
| 20260504014034 | 10 | 254 | 0.0 | 3.2 | 0.00 | 0.00 | 0.00 | 79 | 1010.1 |
| 20260504013535 | 10 | 0 | 0.0 | 3.2 | 0.00 | 0.00 | 0.00 | 79 | 1010.2 |
| 20260504013051 | 10 | 0 | 0.0 | 3.2 | 0.00 | 0.00 | 0.00 | 79 | 1010.2 |
| 20260504012534 | 10 | 0 | 0.0 | 3.2 | 0.00 | 0.00 | 0.00 | 78 | 1010.1 |
| 20260504012035 | 10 | 0 | 0.0 | 6.4 | 0.00 | 0.00 | 0.00 | 78 | 1010.2 |
| 20260504011549 | 10 | 0 | 0.0 | 6.4 | 0.00 | 0.00 | 0.00 | 78 | 1010.1 |
| 20260504011037 | 10 | 279 | 0.0 | 6.4 | 0.00 | 0.00 | 0.00 | 77 | 1010.0 |
| 20260504010550 | 10 | 295 | 1.6 | 12.9 | 0.00 | 0.00 | 0.00 | 75 | 1010.2 |
| 20260504010055 | 10 | 252 | 1.6 | 12.9 | 0.00 | 0.00 | 0.00 | 73 | 1010.5 |
| 20260504005534 | 11 | 166 | 3.2 | 14.5 | 0.00 | 0.00 | 0.00 | 71 | 1010.5 |
| 20260504005034 | 11 | 326 | 1.6 | 14.5 | 0.00 | 0.00 | 0.00 | 69 | 1010.4 |
| 20260504004548 | 11 | 271 | 3.2 | 12.9 | 0.00 | 0.00 | 0.00 | 67 | 1010.6 |
| 20260504004035 | 11 | 295 | 3.2 | 17.7 | 0.00 | 0.00 | 0.00 | 66 | 1010.4 |
| 20260504003534 | 11 | 314 | 4.8 | 17.7 | 0.00 | 0.00 | 0.00 | 65 | 1010.2 |
| 20260504003044 | 11 | 295 | 6.4 | 17.7 | 0.00 | 0.00 | 0.00 | 64 | 1010.1 |
| 20260504002534 | 11 | 245 | 6.4 | 17.7 | 0.00 | 0.00 | 0.00 | 62 | 1010.1 |
| 20260504002034 | 11 | 300 | 4.8 | 14.5 | 0.00 | 0.00 | 0.00 | 62 | 1009.9 |
| 20260504001556 | 11 | 317 | 4.8 | 25.7 | 0.00 | 0.00 | 0.00 | 61 | 1009.9 |
| 20260504001034 | 12 | 287 | 8.0 | 32.2 | 0.00 | 0.00 | 0.00 | 60 | 1009.9 |
| 20260504000534 | 12 | 296 | 11.3 | 32.2 | 0.00 | 0.00 | 0.00 | 59 | 1009.9 |
| 20260504000040 | 12 | 258 | 11.3 | 25.7 | 0.00 | 0.00 | 0.00 | 60 | 1009.9 |
| 20260503235533 | 12 | 255 | 9.7 | 22.5 | 0.00 | 0.00 | 0.00 | 58 | 1009.6 |
| 20260503235035 | 12 | 242 | 6.4 | 14.5 | 0.00 | 0.00 | 0.00 | 52 | 1009.6 |
| 20260503234550 | 12 | 260 | 4.8 | 14.5 | 0.00 | 0.00 | 0.00 | 53 | 1009.5 |
| 20260503234038 | 11 | 311 | 4.8 | 14.5 | 0.00 | 0.00 | 0.00 | 56 | 1009.2 |
| 20260503233535 | 11 | 316 | 1.6 | 11.3 | 0.00 | 0.00 | 0.00 | 58 | 1009.2 |
| 20260503233044 | 11 | 246 | 0.0 | 4.8 | 0.00 | 0.00 | 0.00 | 58 | 1009.1 |
| 20260503232537 | 11 | 0 | 0.0 | 3.2 | 0.00 | 0.00 | 0.00 | 57 | 1009.2 |
| 20260503232034 | 11 | 0 | 0.0 | 0.0 | 0.00 | 0.00 | 0.00 | 59 | 1009.1 |
| 20260503231552 | 11 | 0 | 0.0 | 0.0 | 0.00 | 0.00 | 0.00 | 57 | 1009.1 |
| 20260503231038 | 11 | 0 | 0.0 | 1.6 | 0.00 | 0.00 | 0.00 | 57 | 1009.2 |
| 20260503230536 | 11 | 0 | 0.0 | 6.4 | 0.00 | 0.00 | 0.00 | 56 | 1009.1 |
| 20260503230100 | 11 | 0 | 0.0 | 6.4 | 0.00 | 0.00 | 0.00 | 57 | 1009.1 |
| 20260503225534 | 11 | 202 | 0.0 | 3.2 | 0.00 | 0.00 | 0.00 | 55 | 1009.1 |
| 20260503225034 | 11 | 0 | 0.0 | 3.2 | 0.00 | 0.00 | 0.00 | 54 | 1009.2 |
| 20260503224542 | 11 | 0 | 0.0 | 3.2 | 0.00 | 0.00 | 0.00 | 54 | 1009.3 |
| 20260503224036 | 11 | 0 | 0.0 | 4.8 | 0.00 | 0.00 | 0.00 | 53 | 1009.5 |
| 20260503223534 | 11 | 0 | 0.0 | 4.8 | 0.00 | 0.00 | 0.00 | 53 | 1009.5 |
| 20260503223107 | 11 | 311 | 0.0 | 12.9 | 0.00 | 0.00 | 0.00 | 52 | 1009.7 |
| 20260503222533 | 12 | 309 | 0.0 | 12.9 | 0.00 | 0.00 | 0.00 | 50 | 1009.7 |
| 20260503222034 | 12 | 290 | 3.2 | 12.9 | 0.00 | 0.00 | 0.00 | 52 | 1009.6 |
| 20260503221552 | 12 | 329 | 1.6 | 11.3 | 0.00 | 0.00 | 0.00 | 49 | 1009.9 |
| 20260503221035 | 12 | 302 | 1.6 | 11.3 | 0.00 | 0.00 | 0.00 | 50 | 1010.0 |
| 20260503220535 | 13 | 295 | 4.8 | 11.3 | 0.00 | 0.00 | 0.00 | 46 | 1009.8 |
| 20260503220052 | 13 | 286 | 1.6 | 11.3 | 0.00 | 0.00 | 0.00 | 45 | 1009.6 |
| 20260503215534 | 13 | 0 | 1.6 | 11.3 | 0.00 | 0.00 | 0.00 | 44 | 1009.5 |
| 20260503215035 | 13 | 250 | 4.8 | 11.3 | 0.00 | 0.00 | 0.00 | 42 | 1009.5 |
| 20260503214554 | 13 | 289 | 1.6 | 14.5 | 0.00 | 0.00 | 0.00 | 45 | 1009.4 |
| 20260503214034 | 13 | 232 | 3.2 | 14.5 | 0.00 | 0.00 | 0.00 | 41 | 1009.5 |
| 20260503213534 | 13 | 280 | 6.4 | 17.7 | 0.00 | 0.00 | 0.00 | 40 | 1009.3 |
| 20260503213046 | 14 | 229 | 3.2 | 17.7 | 0.00 | 0.00 | 0.00 | 41 | 1009.2 |
| 20260503212535 | 14 | 0 | 4.8 | 12.9 | 0.00 | 0.00 | 0.00 | 42 | 1009.2 |
| 20260503212034 | 14 | 228 | 4.8 | 14.5 | 0.00 | 0.00 | 0.00 | 41 | 1009.3 |
| 20260503211543 | 14 | 326 | 3.2 | 14.5 | 0.00 | 0.00 | 0.00 | 42 | 1009.4 |
| 20260503211034 | 14 | 286 | 4.8 | 14.5 | 0.00 | 0.00 | 0.00 | 40 | 1009.4 |
| 20260503210535 | 13 | 244 | 3.2 | 12.9 | 0.00 | 0.00 | 0.00 | 42 | 1009.6 |
| 20260503210042 | 13 | 304 | 3.2 | 12.9 | 0.00 | 0.00 | 0.00 | 42 | 1009.5 |
| 20260503205534 | 13 | 218 | 3.2 | 12.9 | 0.00 | 0.00 | 0.00 | 39 | 1009.5 |
| 20260503205036 | 13 | 297 | 4.8 | 12.9 | 0.00 | 0.00 | 0.00 | 42 | 1009.5 |
| 20260503204547 | 13 | 210 | 3.2 | 16.1 | 0.00 | 0.00 | 0.00 | 42 | 1009.6 |
| 20260503204034 | 13 | 192 | 8.0 | 16.1 | 0.00 | 0.00 | 0.00 | 41 | 1009.6 |
| 20260503203534 | 13 | 347 | 4.8 | 14.5 | 0.00 | 0.00 | 0.00 | 42 | 1009.7 |
| 20260503203049 | 13 | 266 | 4.8 | 14.5 | 0.00 | 0.00 | 0.00 | 40 | 1009.8 |
| 20260503202535 | 13 | 311 | 4.8 | 12.9 | 0.00 | 0.00 | 0.00 | 42 | 1009.8 |
| 20260503202036 | 13 | 301 | 3.2 | 14.5 | 0.00 | 0.00 | 0.00 | 41 | 1010.0 |
| 20260503201541 | 13 | 339 | 4.8 | 20.9 | 0.00 | 0.00 | 0.00 | 42 | 1010.1 |
| 20260503201036 | 13 | 217 | 8.0 | 20.9 | 0.00 | 0.00 | 0.00 | 40 | 1010.0 |
| 20260503200534 | 13 | 288 | 4.8 | 14.5 | 0.00 | 0.00 | 0.00 | 40 | 1010.1 |
| 20260503200047 | 13 | 251 | 4.8 | 14.5 | 0.00 | 0.00 | 0.00 | 39 | 1010.2 |
| 20260503195535 | 13 | 292 | 6.4 | 17.7 | 0.00 | 0.00 | 0.00 | 40 | 1010.2 |
| 20260503195034 | 13 | 247 | 6.4 | 17.7 | 0.00 | 0.00 | 0.00 | 41 | 1010.3 |
| 20260503194557 | 13 | 247 | 6.4 | 17.7 | 0.00 | 0.00 | 0.00 | 41 | 1010.5 |
| 20260503194034 | 12 | 270 | 3.2 | 11.3 | 0.00 | 0.00 | 0.00 | 48 | 1010.5 |
| 20260503193534 | 12 | 279 | 3.2 | 14.5 | 0.00 | 0.00 | 0.00 | 48 | 1010.6 |
| 20260503193044 | 12 | 234 | 3.2 | 14.5 | 0.00 | 0.00 | 0.00 | 49 | 1010.7 |
| 20260503192534 | 12 | 284 | 3.2 | 11.3 | 0.00 | 0.00 | 0.00 | 49 | 1010.9 |
| 20260503192034 | 12 | 147 | 4.8 | 12.9 | 0.00 | 0.00 | 0.00 | 47 | 1010.7 |
| 20260503191538 | 12 | 325 | 3.2 | 14.5 | 0.00 | 0.00 | 0.00 | 50 | 1011.0 |
| 20260503191035 | 12 | 194 | 6.4 | 14.5 | 0.00 | 0.00 | 0.00 | 48 | 1011.1 |
| 20260503190538 | 12 | 268 | 4.8 | 12.9 | 0.00 | 0.00 | 0.00 | 51 | 1011.1 |
| 20260503190047 | 11 | 271 | 4.8 | 11.3 | 0.00 | 0.00 | 0.00 | 51 | 1011.1 |
| 20260503185534 | 11 | 317 | 1.6 | 4.8 | 0.00 | 0.00 | 0.00 | 50 | 1011.1 |
| 20260503185034 | 11 | 0 | 1.6 | 11.3 | 0.00 | 0.00 | 0.00 | 50 | 1011.2 |
| 20260503184544 | 11 | 334 | 1.6 | 11.3 | 0.00 | 0.00 | 0.00 | 50 | 1011.2 |
| 20260503184035 | 11 | 315 | 3.2 | 11.3 | 0.00 | 0.00 | 0.00 | 50 | 1011.3 |
| 20260503183535 | 11 | 0 | 3.2 | 11.3 | 0.00 | 0.00 | 0.00 | 48 | 1011.3 |
| 20260503183053 | 11 | 316 | 3.2 | 11.3 | 0.00 | 0.00 | 0.00 | 47 | 1011.3 |
| 20260503182534 | 12 | 286 | 1.6 | 6.4 | 0.00 | 0.00 | 0.00 | 47 | 1011.4 |
| 20260503182034 | 12 | 292 | 3.2 | 8.0 | 0.00 | 0.00 | 0.00 | 46 | 1011.4 |
| 20260503181602 | 12 | 243 | 3.2 | 8.0 | 0.00 | 0.00 | 0.00 | 44 | 1011.4 |
| 20260503181038 | 12 | 347 | 1.6 | 6.4 | 0.00 | 0.00 | 0.00 | 49 | 1011.5 |
| 20260503180536 | 11 | 271 | 1.6 | 14.5 | 0.00 | 0.00 | 0.00 | 51 | 1011.5 |
| 20260503180053 | 11 | 310 | 3.2 | 14.5 | 0.00 | 0.00 | 0.00 | 46 | 1011.5 |
| 20260503175533 | 11 | 290 | 3.2 | 12.9 | 0.00 | 0.00 | 0.00 | 45 | 1011.5 |
| 20260503175034 | 11 | 288 | 3.2 | 12.9 | 0.00 | 0.00 | 0.00 | 45 | 1011.4 |
| 20260503174553 | 11 | 297 | 4.8 | 12.9 | 0.00 | 0.00 | 0.00 | 46 | 1011.4 |
| 20260503174034 | 12 | 0 | 3.2 | 12.9 | 0.00 | 0.00 | 0.00 | 46 | 1011.6 |
| 20260503173535 | 12 | 277 | 3.2 | 24.1 | 0.00 | 0.00 | 0.00 | 48 | 1011.5 |
| 20260503173040 | 12 | 282 | 4.8 | 24.1 | 0.00 | 0.00 | 0.00 | 46 | 1011.5 |
| 20260503172536 | 12 | 266 | 6.4 | 16.1 | 0.00 | 0.00 | 0.00 | 43 | 1011.6 |
| 20260503172034 | 12 | 205 | 3.2 | 14.5 | 0.00 | 0.00 | 0.00 | 47 | 1011.6 |
| 20260503171544 | 11 | 0 | 3.2 | 14.5 | 0.00 | 0.00 | 0.00 | 45 | 1011.5 |
| 20260503171034 | 11 | 206 | 3.2 | 19.3 | 0.00 | 0.00 | 0.00 | 47 | 1011.6 |
| 20260503170534 | 11 | 331 | 6.4 | 19.3 | 0.00 | 0.00 | 0.00 | 45 | 1011.8 |
| 20260503150534 | 9 | 297 | 3.2 | 12.9 | 0.00 | 0.00 | 0.00 | 44 | 1013.5 |
| 20260503131034 | 6 | 247 | 1.6 | 12.9 | 0.00 | 0.00 | 0.00 | 54 | 1014.4 |
| 20260503130535 | 6 | 298 | 4.8 | 12.9 | 0.00 | 0.00 | 0.00 | 55 | 1014.3 |
| 20260503110535 | 1 | 303 | 0.0 | 1.6 | 0.00 | 0.00 | 0.00 | 91 | 1013.9 |
| 20260503081541 | 2 | 0 | 0.0 | 3.2 | 0.00 | 0.00 | 0.00 | 82 | 1013.9 |
| 20260503081037 | 3 | 0 | 0.0 | 3.2 | 0.00 | 0.00 | 0.00 | 82 | 1013.8 |
| 20260503080538 | 3 | 271 | 0.0 | 1.6 | 0.00 | 0.00 | 0.00 | 81 | 1013.8 |
| 20260503072535 | 3 | 0 | 0.0 | 3.2 | 0.00 | 0.00 | 0.00 | 79 | 1013.7 |
| 20260503072035 | 4 | 0 | 0.0 | 6.4 | 0.00 | 0.00 | 0.00 | 79 | 1013.6 |
| 20260503071547 | 4 | 0 | 0.0 | 6.4 | 0.00 | 0.00 | 0.00 | 79 | 1013.6 |
| 20260503071034 | 4 | 0 | 0.0 | 4.8 | 0.00 | 0.00 | 0.00 | 79 | 1013.7 |
| 20260503070537 | 4 | 287 | 0.0 | 4.8 | 0.00 | 0.00 | 0.00 | 79 | 1013.7 |
| 20260503055034 | 4 | 0 | 0.0 | 1.6 | 0.00 | 0.00 | 0.00 | 79 | 1013.9 |
| 20260503054540 | 4 | 0 | 0.0 | 1.6 | 0.00 | 0.00 | 0.00 | 78 | 1013.9 |